FW4310 Weather Reports


Display with metric or nautical units.
time (UTC)temp
F
wind
direction
speed
MPH
gust
MPH
rain 1hr
in
rain 24hr
in
rain mn
in
humidity
%
barometer
mb
20260506211001 76 217 4.0 9.0 0.00 0.00 0.00 78 1016.3
20260506210503 76 165 4.0 9.0 0.00 0.00 0.00 78 1016.2
20260506210001 77 194 4.0 10.0 0.00 0.00 0.00 77 1016.3
20260506205513 77 157 4.0 10.0 0.00 0.00 0.00 77 1016.2
20260506205007 76 190 3.0 10.0 0.00 0.00 0.00 76 1016.4
20260506204505 77 217 3.0 9.0 0.00 0.00 0.00 76 1016.5
20260506204007 77 178 4.0 10.0 0.00 0.00 0.00 76 1016.5
20260506203505 77 155 3.0 10.0 0.00 0.00 0.00 76 1016.5
20260506203004 77 197 4.0 11.0 0.00 0.00 0.00 77 1016.5
20260506202723 77 237 4.0 11.0 0.00 0.00 0.00 75 1016.7
20260506202002 77 207 4.0 12.0 0.00 0.00 0.00 76 1016.8
20260506201501 76 212 4.0 12.0 0.00 0.00 0.00 76 1016.9
20260506201221 77 195 4.0 9.0 0.00 0.00 0.00 74 1016.9
20260506200726 77 180 4.0 10.0 0.00 0.00 0.00 75 1017.0
20260506195958 77 146 4.0 13.0 0.00 0.00 0.00 75 1017.0
20260506195455 77 75 4.0 13.0 0.00 0.00 0.00 76 1017.0
20260506194956 77 186 4.0 10.0 0.00 0.00 0.00 75 1017.1
20260506194456 77 224 4.0 11.0 0.00 0.00 0.00 75 1017.0
20260506193953 78 171 3.0 11.0 0.00 0.00 0.00 74 1017.0
20260506193453 78 217 4.0 9.0 0.00 0.00 0.00 74 1017.1
20260506192954 77 137 4.0 11.0 0.00 0.00 0.00 75 1017.3
20260506191953 77 219 4.0 9.0 0.00 0.00 0.00 76 1017.5
20260506191456 77 101 4.0 10.0 0.00 0.00 0.00 76 1017.5
20260506190954 77 227 3.0 10.0 0.00 0.00 0.00 74 1017.4
20260506190452 78 212 3.0 9.0 0.00 0.00 0.00 75 1017.5
20260506185951 76 178 3.0 9.0 0.00 0.00 0.00 75 1017.7
20260506185451 77 198 4.0 9.0 0.00 0.00 0.00 75 1017.8
20260506185215 77 208 4.0 9.0 0.00 0.00 0.00 74 1017.9
20260506184452 78 233 3.0 9.0 0.00 0.00 0.00 73 1018.1
20260506183952 78 217 3.0 10.0 0.00 0.00 0.00 74 1017.9
20260506183451 79 178 2.0 10.0 0.00 0.00 0.00 72 1018.0
20260506182952 79 194 3.0 9.0 0.00 0.00 0.00 72 1018.1
20260506182714 78 267 3.0 10.0 0.00 0.00 0.00 74 1018.1
20260506181945 78 207 3.0 10.0 0.00 0.00 0.00 72 1018.0
20260506181444 79 218 3.0 7.0 0.00 0.00 0.00 74 1018.1
20260506180941 78 209 3.0 10.0 0.00 0.00 0.00 74 1018.1
20260506180441 77 227 3.0 10.0 0.00 0.00 0.00 75 1018.3
20260506175942 77 107 4.0 10.0 0.00 0.00 0.00 75 1018.3
20260506175444 77 183 4.0 10.0 0.00 0.00 0.00 75 1018.4
20260506174945 78 205 3.0 10.0 0.00 0.00 0.00 74 1018.4
20260506174442 78 178 3.0 9.0 0.00 0.00 0.00 76 1018.4
20260506173942 78 188 3.0 9.0 0.00 0.00 0.00 75 1018.6
20260506173442 77 208 3.0 8.0 0.00 0.00 0.00 77 1018.6
20260506172942 77 167 3.0 10.0 0.00 0.00 0.00 76 1018.7
20260506172714 77 40 3.0 10.0 0.00 0.00 0.00 76 1018.8
20260506171942 77 140 4.0 13.0 0.00 0.00 0.00 75 1018.9
20260506171439 76 229 5.0 13.0 0.00 0.00 0.00 75 1019.0
20260506170937 77 257 4.0 12.0 0.00 0.00 0.00 74 1018.8
20260506170435 77 225 3.0 11.0 0.00 0.00 0.00 74 1018.9
20260506165933 78 240 3.0 11.0 0.00 0.00 0.00 75 1018.9
20260506165701 76 225 3.0 8.0 0.00 0.00 0.00 77 1018.8
20260506164932 76 237 3.0 8.0 0.00 0.00 0.00 77 1018.8
20260506164433 77 219 3.0 8.0 0.00 0.00 0.00 76 1018.9
20260506163932 78 205 3.0 9.0 0.00 0.00 0.00 73 1018.9
20260506163654 78 170 3.0 11.0 0.00 0.00 0.00 73 1019.0
20260506162933 78 263 3.0 11.0 0.00 0.00 0.00 73 1019.2
20260506162434 78 228 3.0 9.0 0.00 0.00 0.00 73 1018.9
20260506161933 78 215 4.0 8.0 0.00 0.00 0.00 71 1018.9
20260506161433 78 329 4.0 9.0 0.00 0.00 0.00 73 1018.9
20260506160933 77 261 4.0 10.0 0.00 0.00 0.00 74 1019.1
20260506160434 76 221 4.0 12.0 0.00 0.00 0.00 74 1019.2
20260506155932 76 229 4.0 16.0 0.00 0.00 0.00 74 1019.4
20260506155434 76 215 4.0 16.0 0.00 0.00 0.00 74 1019.3
20260506154933 76 122 3.0 9.0 0.00 0.00 0.00 74 1019.3
20260506154433 77 259 3.0 7.0 0.00 0.00 0.00 75 1019.3
20260506153932 76 172 4.0 10.0 0.00 0.00 0.00 75 1019.5
20260506153432 76 223 4.0 10.0 0.00 0.00 0.00 75 1019.3
20260506152933 76 226 4.0 11.0 0.00 0.00 0.00 76 1019.3
20260506152654 75 246 4.0 11.0 0.00 0.00 0.00 77 1019.2
20260506152436 75 246 4.0 11.0 0.00 0.00 0.00 77 1019.2
20260506152156 75 241 4.0 12.0 0.00 0.00 0.00 76 1019.3
20260506151653 75 225 4.0 12.0 0.00 0.00 0.00 76 1019.4
20260506150934 76 217 4.0 12.0 0.00 0.00 0.00 76 1019.3
20260506150431 75 217 4.0 13.0 0.00 0.00 0.00 76 1019.3
20260506145929 75 281 3.0 13.0 0.00 0.00 0.00 76 1019.3
20260506145431 75 236 3.0 8.0 0.00 0.00 0.00 76 1019.3
20260506144929 75 252 4.0 9.0 0.00 0.00 0.00 76 1019.2
20260506144430 75 243 4.0 11.0 0.00 0.00 0.00 77 1019.1
20260506144153 75 229 4.0 11.0 0.00 0.00 0.00 74 1019.0
20260506143420 77 253 3.0 9.0 0.00 0.00 0.00 73 1019.1
20260506143158 77 196 2.0 8.0 0.00 0.00 0.00 74 1019.0
20260506142642 77 184 2.0 7.0 0.00 0.00 0.00 74 1018.6
20260506141909 77 189 2.0 7.0 0.00 0.00 0.00 73 1018.7
20260506141407 75 216 3.0 8.0 0.00 0.00 0.00 76 1018.8
20260506140633 75 246 4.0 9.0 0.00 0.00 0.00 74 1019.0
20260506140135 76 254 3.0 10.0 0.00 0.00 0.00 74 1018.9
20260506135631 76 230 3.0 10.0 0.00 0.00 0.00 73 1018.9
20260506135133 76 188 3.0 7.0 0.00 0.00 0.00 75 1018.8
20260506134629 76 182 3.0 9.0 0.00 0.00 0.00 74 1018.7
20260506133904 76 188 3.0 9.0 0.00 0.00 0.00 73 1018.6
20260506133404 76 147 3.0 10.0 0.00 0.00 0.00 74 1018.7
20260506132905 75 244 3.0 10.0 0.00 0.00 0.00 74 1018.5
20260506132401 75 228 2.0 10.0 0.00 0.00 0.00 74 1018.5
20260506131902 75 210 3.0 10.0 0.00 0.00 0.00 75 1018.6
20260506131403 75 221 3.0 10.0 0.00 0.00 0.00 74 1018.6
20260506130902 75 238 3.0 8.0 0.00 0.00 0.00 75 1018.6
20260506130634 75 73 3.0 9.0 0.00 0.00 0.00 74 1018.4
20260506125906 74 234 3.0 9.0 0.00 0.00 0.00 75 1018.2
20260506125403 75 215 3.0 6.0 0.00 0.00 0.00 76 1018.3
20260506124905 75 225 3.0 7.0 0.00 0.00 0.00 75 1018.2
20260506124401 74 167 3.0 9.0 0.00 0.00 0.00 75 1018.1
20260506123903 74 265 2.0 9.0 0.00 0.00 0.00 75 1018.2
20260506123621 74 239 3.0 10.0 0.00 0.00 0.00 76 1018.2
20260506123131 74 189 3.0 10.0 0.00 0.00 0.00 77 1018.2
20260506122401 74 182 2.0 7.0 0.00 0.00 0.00 77 1018.2
20260506121902 73 175 2.0 7.0 0.00 0.00 0.00 78 1018.2
20260506121405 73 234 2.0 7.0 0.00 0.00 0.00 79 1018.2
20260506120901 73 236 3.0 7.0 0.00 0.00 0.00 79 1018.2
20260506120401 73 174 2.0 5.0 0.00 0.00 0.00 79 1018.1
20260506115903 73 198 2.0 7.0 0.00 0.00 0.00 79 1018.2
20260506115626 73 210 2.0 7.0 0.00 0.00 0.00 80 1018.1
20260506114905 72 226 2.0 5.0 0.00 0.00 0.00 81 1018.0
20260506114400 72 225 2.0 5.0 0.00 0.00 0.00 81 1018.0
20260506113404 72 181 2.0 6.0 0.00 0.00 0.00 81 1017.7
20260506112856 71 224 2.0 6.0 0.00 0.00 0.00 81 1017.8
20260506112614 71 225 2.0 6.0 0.00 0.00 0.00 81 1017.7
20260506111846 71 198 2.0 5.0 0.00 0.00 0.00 81 1017.7
20260506111604 71 240 2.0 5.0 0.00 0.00 0.00 82 1017.7
20260506110832 70 196 2.0 6.0 0.00 0.00 0.00 82 1017.8
20260506110330 70 200 2.0 6.0 0.00 0.00 0.00 82 1017.8
20260506105829 70 203 2.0 5.0 0.00 0.00 0.00 82 1017.8
20260506105330 70 198 2.0 5.0 0.00 0.00 0.00 82 1017.7
20260506104830 70 198 2.0 4.0 0.00 0.00 0.00 82 1017.7
20260506104330 70 214 2.0 4.0 0.00 0.00 0.00 82 1017.6
20260506104054 70 213 2.0 4.0 0.00 0.00 0.00 82 1017.6
20260506103330 69 213 2.0 4.0 0.00 0.00 0.00 82 1017.4
20260506102832 69 181 2.0 4.0 0.00 0.00 0.00 82 1017.4
20260506102330 70 184 2.0 4.0 0.00 0.00 0.00 82 1017.5
20260506101831 70 219 2.0 4.0 0.00 0.00 0.00 82 1017.5
20260506101552 69 200 2.0 4.0 0.00 0.00 0.00 81 1017.5
20260506100829 69 200 2.0 4.0 0.00 0.00 0.00 82 1017.4
20260506100334 69 200 2.0 4.0 0.00 0.00 0.00 81 1017.5
20260506100054 69 216 2.0 5.0 0.00 0.00 0.00 81 1017.6
20260506095330 69 216 2.0 5.0 0.00 0.00 0.00 81 1017.6
20260506094830 69 204 1.0 4.0 0.00 0.00 0.00 81 1017.4
20260506094333 69 215 1.0 3.0 0.00 0.00 0.00 81 1017.4
20260506093826 69 217 2.0 3.0 0.00 0.00 0.00 80 1017.5
20260506093547 70 217 2.0 3.0 0.00 0.00 0.00 80 1017.6
20260506093044 70 218 2.0 5.0 0.00 0.00 0.00 80 1017.6
20260506092548 70 218 2.0 5.0 0.00 0.00 0.00 80 1017.5
20260506091816 69 252 1.0 4.0 0.00 0.00 0.00 79 1017.5
20260506091313 70 216 2.0 5.0 0.00 0.00 0.00 79 1017.4
20260506090813 70 215 2.0 5.0 0.00 0.00 0.00 79 1017.4
20260506090313 70 214 2.0 5.0 0.00 0.00 0.00 79 1017.5
20260506090037 70 214 1.0 5.0 0.00 0.00 0.00 78 1017.5
20260506085313 70 233 2.0 4.0 0.00 0.00 0.00 78 1017.6
20260506085033 70 217 2.0 4.0 0.00 0.00 0.00 78 1017.5
20260506084309 70 230 2.0 6.0 0.00 0.00 0.00 78 1017.6
20260506083808 70 202 2.0 6.0 0.00 0.00 0.00 77 1017.7
20260506083307 70 211 3.0 7.0 0.00 0.00 0.00 77 1017.6
20260506082806 70 212 2.0 7.0 0.00 0.00 0.00 77 1017.6
20260506082306 70 190 2.0 5.0 0.00 0.00 0.00 77 1017.5
20260506081807 70 223 2.0 5.0 0.00 0.00 0.00 77 1017.6
20260506081307 70 223 2.0 5.0 0.00 0.00 0.00 76 1017.6
20260506080806 70 227 2.0 5.0 0.00 0.00 0.00 76 1017.5
20260506080307 70 227 2.0 6.0 0.00 0.00 0.00 76 1017.6
20260506073304 70 219 2.0 6.0 0.00 0.00 0.00 77 1017.6
20260506072802 70 155 2.0 6.0 0.00 0.00 0.00 77 1017.5
20260506072305 70 218 2.0 5.0 0.00 0.00 0.00 76 1017.4
20260506072028 70 198 2.0 4.0 0.00 0.00 0.00 76 1017.4
20260506071302 70 211 2.0 5.0 0.00 0.00 0.00 76 1017.5
20260506070802 70 215 2.0 5.0 0.00 0.00 0.00 76 1017.4
20260506070302 70 227 2.0 5.0 0.00 0.00 0.00 76 1017.5
20260506061806 69 197 2.0 6.0 0.00 0.00 0.00 77 1018.0
20260506061300 69 184 2.0 6.0 0.00 0.00 0.00 77 1017.8
20260506060802 69 186 2.0 5.0 0.00 0.00 0.00 77 1017.8
20260506060301 69 166 2.0 6.0 0.00 0.00 0.00 77 1018.0
20260506051254 69 175 3.0 6.0 0.00 0.00 0.00 76 1018.4
20260506050754 69 184 2.0 5.0 0.00 0.00 0.00 77 1018.4
20260506050254 69 192 2.0 4.0 0.00 0.00 0.00 77 1018.5
20260506044757 70 188 3.0 6.0 0.00 0.00 0.00 74 1018.5
20260506044254 70 188 3.0 6.0 0.00 0.00 0.00 74 1018.4
20260506044023 70 187 3.0 7.0 0.00 0.00 0.00 73 1018.5
20260506043254 70 192 3.0 7.0 0.00 0.00 0.00 73 1018.6
20260506042753 70 194 3.0 6.0 0.00 0.00 0.00 72 1018.6
20260506042516 70 202 3.0 6.0 0.00 0.00 0.00 72 1018.5
20260506042009 70 180 3.0 9.0 0.00 0.00 0.00 72 1018.6
20260506041506 70 144 4.0 9.0 0.00 0.00 0.00 72 1018.6
20260506040738 70 159 4.0 8.0 0.00 0.00 0.00 72 1018.6
20260506040233 70 198 4.0 9.0 0.00 0.00 0.00 72 1018.6
20260506035732 70 178 4.0 9.0 0.00 0.00 0.00 72 1018.6
20260506035229 70 198 4.0 8.0 0.00 0.00 0.00 72 1018.5
20260506034730 71 143 4.0 7.0 0.00 0.00 0.00 72 1018.5
20260506034456 70 194 4.0 7.0 0.00 0.00 0.00 71 1018.5
20260506033731 71 187 3.0 7.0 0.00 0.00 0.00 71 1018.5
20260506033230 71 126 3.0 7.0 0.00 0.00 0.00 71 1018.5
20260506032730 71 154 4.0 10.0 0.00 0.00 0.00 71 1018.6
20260506032450 71 137 5.0 10.0 0.00 0.00 0.00 71 1018.6
20260506031728 71 180 6.0 10.0 0.00 0.00 0.00 70 1018.5
20260506031228 71 188 6.0 10.0 0.00 0.00 0.00 69 1018.5
20260506030229 71 159 5.0 10.0 0.00 0.00 0.00 70 1018.6
20260506025953 71 146 5.0 10.0 0.00 0.00 0.00 68 1018.7
20260506025229 71 190 6.0 10.0 0.00 0.00 0.00 69 1018.5
20260506024728 71 169 6.0 10.0 0.00 0.00 0.00 69 1018.6
20260506024225 71 261 5.0 10.0 0.00 0.00 0.00 69 1018.7
20260506023727 71 195 6.0 10.0 0.00 0.00 0.00 69 1018.6
20260506023227 71 175 5.0 10.0 0.00 0.00 0.00 68 1018.5
20260506022956 71 119 5.0 9.0 0.00 0.00 0.00 69 1018.6
20260506022226 71 182 4.0 8.0 0.00 0.00 0.00 69 1018.7
20260506021723 71 136 4.0 9.0 0.00 0.00 0.00 68 1018.7
20260506021224 71 110 5.0 10.0 0.00 0.00 0.00 69 1018.6
20260506020725 71 178 5.0 10.0 0.00 0.00 0.00 69 1018.6
20260506020220 71 175 5.0 11.0 0.00 0.00 0.00 68 1018.5
20260506015948 71 155 5.0 11.0 0.00 0.00 0.00 68 1018.6
20260506015221 71 193 5.0 11.0 0.00 0.00 0.00 67 1018.5
20260506014721 71 167 6.0 11.0 0.00 0.00 0.00 67 1018.5
20260506014445 71 141 6.0 10.0 0.00 0.00 0.00 67 1018.4
20260506013720 71 168 6.0 10.0 0.00 0.00 0.00 67 1018.4
20260506013221 71 190 5.0 10.0 0.00 0.00 0.00 68 1018.2
20260506012949 71 198 5.0 10.0 0.00 0.00 0.00 67 1018.3
20260506012220 71 199 5.0 10.0 0.00 0.00 0.00 67 1018.4
20260506011719 71 188 4.0 9.0 0.00 0.00 0.00 68 1018.5
20260506011222 71 198 4.0 9.0 0.00 0.00 0.00 68 1018.4
20260506010720 71 203 5.0 11.0 0.00 0.00 0.00 67 1018.4
20260506010220 71 186 5.0 11.0 0.00 0.00 0.00 66 1018.3
20260506005720 71 156 5.0 9.0 0.00 0.00 0.00 67 1018.3
20260506005218 71 195 5.0 11.0 0.00 0.00 0.00 66 1018.4
20260506004718 71 159 5.0 11.0 0.00 0.00 0.00 66 1018.2
20260506004222 71 179 5.0 9.0 0.00 0.00 0.00 68 1018.1
20260506003715 71 171 5.0 11.0 0.00 0.00 0.00 69 1018.1
20260506003216 71 165 5.0 11.0 0.00 0.00 0.00 68 1018.3
20260506002713 71 194 5.0 10.0 0.00 0.00 0.00 67 1018.2
20260506002214 71 188 5.0 10.0 0.00 0.00 0.00 68 1018.3
20260506001936 71 194 4.0 8.0 0.00 0.00 0.00 68 1018.4
20260506001208 71 190 4.0 10.0 0.00 0.00 0.00 68 1018.4
20260506000706 71 154 5.0 10.0 0.00 0.00 0.00 68 1018.5
20260506000205 71 151 5.0 8.0 0.00 0.00 0.00 67 1018.6
20260505235705 71 153 4.0 9.0 0.00 0.00 0.00 68 1018.4
20260505235206 71 183 5.0 10.0 0.00 0.00 0.00 67 1018.2
20260505234706 71 185 5.0 10.0 0.00 0.00 0.00 68 1018.3
20260505234204 71 180 5.0 9.0 0.00 0.00 0.00 68 1018.3
20260505233705 71 221 4.0 8.0 0.00 0.00 0.00 67 1018.2
20260505233205 71 194 4.0 9.0 0.00 0.00 0.00 67 1018.0
20260505232923 71 204 5.0 10.0 0.00 0.00 0.00 68 1017.9
20260505232208 72 212 5.0 10.0 0.00 0.00 0.00 67 1018.0
20260505231931 72 190 5.0 9.0 0.00 0.00 0.00 66 1018.0
20260505231207 71 163 5.0 9.0 0.00 0.00 0.00 68 1018.0
20260505230707 71 187 5.0 10.0 0.00 0.00 0.00 68 1018.2
20260505225934 72 152 6.0 10.0 0.00 0.00 0.00 68 1018.1
20260505225205 72 184 5.0 10.0 0.00 0.00 0.00 67 1018.2
20260505224704 72 136 5.0 9.0 0.00 0.00 0.00 68 1018.2
20260505224205 72 167 5.0 12.0 0.00 0.00 0.00 67 1018.2
20260505223706 72 169 5.0 12.0 0.00 0.00 0.00 67 1018.2
20260505223203 72 148 5.0 12.0 0.00 0.00 0.00 68 1018.4
20260505222704 72 194 6.0 12.0 0.00 0.00 0.00 67 1018.4
20260505222206 73 184 5.0 11.0 0.00 0.00 0.00 67 1018.6
20260505221934 73 145 6.0 11.0 0.00 0.00 0.00 68 1018.5
20260505221205 73 194 6.0 11.0 0.00 0.00 0.00 68 1018.3
20260505220708 73 215 5.0 10.0 0.00 0.00 0.00 68 1018.4
20260505220204 73 165 5.0 9.0 0.00 0.00 0.00 67 1018.5
20260505215704 73 113 5.0 11.0 0.00 0.00 0.00 67 1018.4
20260505215209 73 126 5.0 11.0 0.00 0.00 0.00 66 1018.4
20260505214701 74 153 5.0 11.0 0.00 0.00 0.00 67 1018.5
20260505214203 74 219 5.0 11.0 0.00 0.00 0.00 66 1018.5
20260505213701 74 189 4.0 9.0 0.00 0.00 0.00 65 1018.6
20260505213202 73 192 4.0 9.0 0.00 0.00 0.00 65 1018.7
20260505212930 73 149 4.0 8.0 0.00 0.00 0.00 67 1018.6
20260505212202 73 159 4.0 8.0 0.00 0.00 0.00 66 1018.7
20260505211702 74 161 4.0 7.0 0.00 0.00 0.00 67 1018.8